Maersk Drummond — A8JF3 — position and weather

sailwx.info

Track history (hours):
 
Tides and Currents Weather Stations Pressure Air Temp Water Temp Dewpoint Dewpoint Depression Visibility Wind Speed Wind Dir Waves Ship Positions

Maersk Drummond

Last reported at 2014-Oct-28 21:30 UTC. Time now 2014-Oct-31 14:26 UTC.
Position N 26°36' W 079°25'.

Length 294 m; draft 11 m.

Type: Ship (hazmat cat A). MMSI: 636091082.

Date/timePositionNaut miles runAvg speedWind from/ knotsBaromVisibWave heightAir tempDewpointWater temp
2014-Oct-28 21:30N 26°36' W 079°25'1617.3
2014-Oct-28 20:33N 26°21' W 079°29'1515.1
2014-Oct-28 19:33N 26°08' W 079°39'1615.7
2014-Oct-28 18:33N 26°06' W 079°56'10 9.8
2014-Oct-28 17:33N 26°05' W 080°07'1 1.2
2014-Oct-28 16:31N 26°04' W 080°07'0 0.0
2014-Oct-28 15:31N 26°04' W 080°07'0 0.0
2014-Oct-28 14:22N 26°04' W 080°07'0 0.0
2014-Oct-28 13:25N 26°04' W 080°07'0 0.0
2014-Oct-28 12:25N 26°04' W 080°07'1 1.6
2014-Oct-28 11:33N 26°06' W 080°07'6 6.5
2014-Oct-28 10:33N 26°00' W 080°03'1616.0
2014-Oct-28 09:33N 25°45' W 079°58'  
2014-Oct-26 01:30N 29°44' W 090°00'12 9.1
2014-Oct-26 00:14N 29°55' W 089°56'7 8.7
2014-Oct-25 23:24N 29°55' W 090°04'2 1.0
2014-Oct-25 21:24N 29°55' W 090°07'0 0.0
2014-Oct-25 20:27N 29°55' W 090°07'0 0.0
2014-Oct-25 16:09N 29°55' W 090°07'0 0.0
2014-Oct-25 14:27N 29°55' W 090°07'0 0.0
2014-Oct-25 13:33N 29°55' W 090°07'0 0.0
2014-Oct-25 11:33N 29°55' W 090°07'10 5.0
2014-Oct-25 09:29N 29°54' W 089°55'8 8.1
2014-Oct-25 08:31N 29°48' W 090°00'11 9.3
2014-Oct-25 07:19N 29°38' W 089°55'236 9.5
2014-Oct-24 06:33N 29°09' W 094°24'2311.4
2014-Oct-24 04:33N 29°21' W 094°46'1414.0
2014-Oct-24 03:34N 29°33' W 094°54'10 9.4
2014-Oct-24 02:32N 29°41' W 094°60'0 0.0
2014-Oct-24 01:32N 29°41' W 094°60'0 0.0
2014-Oct-24 00:32N 29°41' W 094°60'0 0.0
2014-Oct-23 23:32N 29°41' W 094°60'0 0.0
2014-Oct-23 22:32N 29°41' W 094°60'0 0.0
2014-Oct-23 21:32N 29°41' W 094°60'0 0.0
2014-Oct-23 20:32N 29°41' W 094°60'0 0.0
2014-Oct-23 19:32N 29°41' W 094°60'0 0.0
2014-Oct-23 18:32N 29°41' W 094°60'0 0.0
2014-Oct-23 17:32N 29°41' W 094°60'0 0.0
2014-Oct-23 16:23N 29°41' W 094°60'0 0.0
2014-Oct-23 15:29N 29°41' W 094°60'0 0.0
2014-Oct-23 14:29N 29°41' W 094°60'0 0.0
2014-Oct-23 13:32N 29°41' W 094°60'0 0.0
2014-Oct-23 12:29N 29°41' W 094°60'0 0.0
2014-Oct-23 11:32N 29°41' W 094°60'0 0.0
2014-Oct-23 10:29N 29°41' W 094°60'0 0.0
2014-Oct-23 09:32N 29°41' W 094°60'0 0.0
2014-Oct-23 08:32N 29°41' W 094°60'0 0.0
2014-Oct-23 07:32N 29°41' W 094°60'0 0.0
2014-Oct-23 06:32N 29°41' W 094°60'0 0.0
2014-Oct-23 05:32N 29°41' W 094°60'0 0.0
2014-Oct-23 04:32N 29°41' W 094°60'0 0.0
2014-Oct-23 03:32N 29°41' W 094°60'0 0.3
2014-Oct-23 02:34N 29°41' W 095°00'7 7.0
2014-Oct-23 01:33N 29°35' W 094°56'1313.1
2014-Oct-23 00:34N 29°23' W 094°49'  
2014-Oct-19 11:34N 19°43' W 096°09'1111.5
2014-Oct-19 10:34N 19°33' W 096°03'1111.2
2014-Oct-19 09:33N 19°23' W 095°58'1010.2
2014-Oct-19 08:34N 19°13' W 096°01'7 6.7
2014-Oct-19 07:34N 19°13' W 096°08'0 0.1
2014-Oct-19 06:32N 19°13' W 096°08'0 0.0
2014-Oct-19 05:32N 19°13' W 096°08'0 0.0
2014-Oct-19 04:32N 19°13' W 096°08'0 0.0
2014-Oct-19 03:32N 19°13' W 096°08'0 0.0
2014-Oct-19 02:32N 19°13' W 096°08'0 0.0
2014-Oct-19 01:32N 19°13' W 096°08'0 0.0
2014-Oct-19 00:32N 19°13' W 096°08'0 0.0
2014-Oct-18 23:32N 19°13' W 096°08'0 0.0
2014-Oct-18 22:32N 19°13' W 096°08'0 0.0
2014-Oct-18 21:32N 19°13' W 096°08'  
Track history (hours):
 
Tides and Currents Weather Stations Pressure Air Temp Water Temp Dewpoint Dewpoint Depression Visibility Wind Speed Wind Dir Waves Ship Positions

Maersk Drummond

Last reported at 2014-Oct-28 21:30 UTC. Time now 2014-Oct-31 14:26 UTC.
Position N 26°36' W 079°25'.

Length 294 m; draft 11 m.

Type: Ship (hazmat cat A). MMSI: 636091082.

Date/timePositionNaut miles runAvg speedWind from/ knotsBaromVisibWave heightAir tempDewpointWater temp
2014-Oct-28 21:30N 26°36' W 079°25'1617.3
2014-Oct-28 20:33N 26°21' W 079°29'1515.1
2014-Oct-28 19:33N 26°08' W 079°39'1615.7
2014-Oct-28 18:33N 26°06' W 079°56'10 9.8
2014-Oct-28 17:33N 26°05' W 080°07'1 1.2
2014-Oct-28 16:31N 26°04' W 080°07'0 0.0
2014-Oct-28 15:31N 26°04' W 080°07'0 0.0
2014-Oct-28 14:22N 26°04' W 080°07'0 0.0
2014-Oct-28 13:25N 26°04' W 080°07'0 0.0
2014-Oct-28 12:25N 26°04' W 080°07'1 1.6
2014-Oct-28 11:33N 26°06' W 080°07'6 6.5
2014-Oct-28 10:33N 26°00' W 080°03'1616.0
2014-Oct-28 09:33N 25°45' W 079°58'  
2014-Oct-26 01:30N 29°44' W 090°00'12 9.1
2014-Oct-26 00:14N 29°55' W 089°56'7 8.7
2014-Oct-25 23:24N 29°55' W 090°04'2 1.0
2014-Oct-25 21:24N 29°55' W 090°07'0 0.0
2014-Oct-25 20:27N 29°55' W 090°07'0 0.0
2014-Oct-25 16:09N 29°55' W 090°07'0 0.0
2014-Oct-25 14:27N 29°55' W 090°07'0 0.0
2014-Oct-25 13:33N 29°55' W 090°07'0 0.0
2014-Oct-25 11:33N 29°55' W 090°07'10 5.0
2014-Oct-25 09:29N 29°54' W 089°55'8 8.1
2014-Oct-25 08:31N 29°48' W 090°00'11 9.3
2014-Oct-25 07:19N 29°38' W 089°55'236 9.5
2014-Oct-24 06:33N 29°09' W 094°24'2311.4
2014-Oct-24 04:33N 29°21' W 094°46'1414.0
2014-Oct-24 03:34N 29°33' W 094°54'10 9.4
2014-Oct-24 02:32N 29°41' W 094°60'0 0.0
2014-Oct-24 01:32N 29°41' W 094°60'0 0.0
2014-Oct-24 00:32N 29°41' W 094°60'0 0.0
2014-Oct-23 23:32N 29°41' W 094°60'0 0.0
2014-Oct-23 22:32N 29°41' W 094°60'0 0.0
2014-Oct-23 21:32N 29°41' W 094°60'0 0.0
2014-Oct-23 20:32N 29°41' W 094°60'0 0.0
2014-Oct-23 19:32N 29°41' W 094°60'0 0.0
2014-Oct-23 18:32N 29°41' W 094°60'0 0.0
2014-Oct-23 17:32N 29°41' W 094°60'0 0.0
2014-Oct-23 16:23N 29°41' W 094°60'0 0.0
2014-Oct-23 15:29N 29°41' W 094°60'0 0.0
2014-Oct-23 14:29N 29°41' W 094°60'0 0.0
2014-Oct-23 13:32N 29°41' W 094°60'0 0.0
2014-Oct-23 12:29N 29°41' W 094°60'0 0.0
2014-Oct-23 11:32N 29°41' W 094°60'0 0.0
2014-Oct-23 10:29N 29°41' W 094°60'0 0.0
2014-Oct-23 09:32N 29°41' W 094°60'0 0.0
2014-Oct-23 08:32N 29°41' W 094°60'0 0.0
2014-Oct-23 07:32N 29°41' W 094°60'0 0.0
2014-Oct-23 06:32N 29°41' W 094°60'0 0.0
2014-Oct-23 05:32N 29°41' W 094°60'0 0.0
2014-Oct-23 04:32N 29°41' W 094°60'0 0.0
2014-Oct-23 03:32N 29°41' W 094°60'0 0.3
2014-Oct-23 02:34N 29°41' W 095°00'7 7.0
2014-Oct-23 01:33N 29°35' W 094°56'1313.1
2014-Oct-23 00:34N 29°23' W 094°49'  
2014-Oct-19 11:34N 19°43' W 096°09'1111.5
2014-Oct-19 10:34N 19°33' W 096°03'1111.2
2014-Oct-19 09:33N 19°23' W 095°58'1010.2
2014-Oct-19 08:34N 19°13' W 096°01'7 6.7
2014-Oct-19 07:34N 19°13' W 096°08'0 0.1
2014-Oct-19 06:32N 19°13' W 096°08'0 0.0
2014-Oct-19 05:32N 19°13' W 096°08'0 0.0
2014-Oct-19 04:32N 19°13' W 096°08'0 0.0
2014-Oct-19 03:32N 19°13' W 096°08'0 0.0
2014-Oct-19 02:32N 19°13' W 096°08'0 0.0
2014-Oct-19 01:32N 19°13' W 096°08'0 0.0
2014-Oct-19 00:32N 19°13' W 096°08'0 0.0
2014-Oct-18 23:32N 19°13' W 096°08'0 0.0
2014-Oct-18 22:32N 19°13' W 096°08'0 0.0
2014-Oct-18 21:32N 19°13' W 096°08'  

Dump ship's entire track history